Regional Weather Roundup
Issued by NWS Sterling, VA

Home | Current Version | Previous Version | Graphics & Text | Print | Product List | Glossary On
Versions: 1 2 3 4 5 6 7 8 9 10 11 12 13 14 15 16 17 18 19 20 21 22 23 24 25 26 27
000
ASUS41 KLWX 061510
RWRLWX

REGIONAL WEATHER ROUNDUP
NATIONAL WEATHER SERVICE BALTIMORE MD/WASHINGTON DC
1000 AM EST TUE DEC 06 2016

Note: "FAIR" indicates few or no clouds below 12,000 feet
with no significant weather and/or obstructions to visibility.
 TC=TEMPERATURE CELSIUS

 * =Non NWS site. Station does not report precipitation (e.g. rain,
    snow, etc.), thunder, or fog.

DCZ001-MDZ009-015-VAZ040>042-051-053>054-061600-
WASHINGTON METRO

CITY           SKY/WX    TMP DP  RH WIND       PRES   REMARKS
WASHINGTON NAT LGT RAIN  44  35  70 NE7       30.10S
DULLES         LGTSLEET  40  35  83 E3        30.08F
ANDREWS AFB    LGT RAIN  41  34  76 E7        30.07S
FT BELVOIR     LGT RAIN  41  36  83 CALM      30.08F
QUANTICO       LGT RAIN  43  35  73 NE12      30.08F
COLLEGE PARK*  CLOUDY    41  32  70 E3        30.09S
LEESBURG*      RAIN      39  37  93 MISG      30.09S
MANASSAS*      CLOUDY    41  37  87 E5        30.08F
GAITHERSBURG*  CLOUDY    39  30  70 E5        30.12S

$$

MDZ006>007-011-014-061600-
BALTIMORE METRO

CITY           SKY/WX    TMP DP  RH WIND       PRES   REMARKS
BWI AIRPORT    LGTSLEET  42  33  70 E12       30.08F
MD SCIENCE CTR   N/A     44  29  55 MISG      30.11F
MARTIN STATE   CLOUDY    43  34  70 E6        30.11F
ANNAPOLIS      CLOUDY    45  33  63 E7        30.09F
FORT MEADE*    CLOUDY    41  32  70 E6        30.12S

$$

MDZ012-015-019>023-061600-
MARYLAND EASTERN SHORE

CITY           SKY/WX    TMP DP  RH WIND       PRES   REMARKS
OCEAN CITY     CLOUDY    50  41  71 E14G23    30.08S
SALISBURY      LGT RAIN  46  40  79 E5        30.08S
BAY BRIDGE AP* CLOUDY    43  32  65 NE5       30.09S
CAMBRIDGE*     PTSUNNY   41  36  81 E5        30.07S
EASTON*        CLOUDY    45  34  65 E6        30.12F

$$

MDZ017>025-061600-
SOUTHERN MARYLAND

CITY           SKY/WX    TMP DP  RH WIND       PRES   REMARKS
PATUXENT RIVER LGT RAIN  43  37  79 E8        30.06F
ST INIGOES     RAIN      44  40  85 NE8       30.05F
LEONARDTOWN*   CLOUDY    41  37  87 NE3       30.07F

$$

MDZ003>005-061600-
NORTH CENTRAL MARYLAND

CITY           SKY/WX    TMP DP  RH WIND       PRES   REMARKS
FREDERICK*     LGT RAIN  37  36  93 NE5       30.11F
HAGERSTOWN APT CLOUDY    41  27  57 SE7       30.05F
WESTMINSTER*   LGT RAIN  39  28  65 E7        30.06F

$$

MDZ501>502-061600-
WESTERN MARYLAND

CITY           SKY/WX    TMP DP  RH WIND       PRES   REMARKS
OAKLAND*       FOG       30  30 100 SE12G17   29.86F VSB 1   WCI  21
CUMBERLAND*    NOT AVBL

$$

VAZ025>031-061600-
SHENANDOAH VALLEY

CITY           SKY/WX    TMP DP  RH WIND       PRES   REMARKS
WINCHESTER*    RAIN      36  34  93 CALM      30.06R
FRONT ROYAL*   CLOUDY    36  36 100 CALM      30.05S
LURAY*         LGT RAIN  37  37 100 N5        30.04S
NEW MARKET*    CLOUDY    37  34  91 CALM      30.03S
STAUNTON*      LGT RAIN  37  33  86 CALM      30.05R
WAYNESBORO*    CLOUDY    37  33  85 NE5       30.02R

$$

WVZ021-048>050-054>055-061600-
EASTERN WEST VIRGINIA PANHANDLE

CITY           SKY/WX    TMP DP  RH WIND       PRES   REMARKS
MARTINSBURG    LGT RAIN  38  33  82 CALM      30.07F
PETERSBURG*    MIX PCPN  37  36  95 CALM      30.03R

$$

VAZ036>039-050-061600-
CENTRAL FOOTHILLS

CITY           SKY/WX    TMP DP  RH WIND       PRES   REMARKS
CHARLOTTESVILL LGT RAIN  41  35  79 NE6       30.05R
CULPEPER*      CLOUDY    40  38  92 CALM      30.08S
ORANGE*          N/A     41  39  93 N5        30.08R
GORDONSVILLE*  CLOUDY    40  37  89 NE7       30.05R
WARRENTON*     DRIZZLE   40  35  81 NE3       30.06S

$$

VAZ055>057-061600-
NORTH AND CENTRAL PIEDMONT

CITY           SKY/WX    TMP DP  RH WIND       PRES   REMARKS
FREDERICKSBRG* DRIZZLE   42  40  92 NE3       30.05F
STAFFORD*      DRIZZLE   40  38  94 NE6       30.10F

$$

NCZ024-NYZ072-PAZ021-071-VAZ022-071-061600-
OTHER REGIONAL OBSERVATIONS

CITY           SKY/WX    TMP DP  RH WIND       PRES   REMARKS
NEW YORK CITY  MOSUNNY   44  29  55 VRB7      30.16S
PHILADELPHIA   CLOUDY    42  30  62 NE10      30.13S
PITTSBURGH     LGT RAIN  41  31  67 SE13      29.84F
ROANOKE        RAIN      41  39  93 E10       29.97F FOG
RICHMOND       LGT RAIN  42  40  92 NE8       30.02F FOG
RALEIGH        LGT RAIN  46  45  96 NE10      29.91S FOG

$$

ANZ530>537-061600-
MARINE OBSERVATIONS

STATION/POSITION TIME  TEMP    WIND        PRES
                       AIR SEA DIR/SP/G
                 (UTC) (F)     (DEG/KT/KT) (MB)
THOMAS PT LIGHT  1500   42 48   70/  8/  9   N/A
BALT KEY BRIDGE  1448   42      80/  9/ 10 1019.1F
COVE POINT       1448   42     100/  5/ 10 1019.0F
LEWISETTA        1448   46 48   90/ 15/ 18 1017.0F
SOLOMONS ISLAND  1448   44 50   70/  9/ 10   N/A
PINEY POINT      1448           90/  8/ 10   N/A

$$





USA.gov is the U.S. government's official web portal to all federal, state and local government web resources and services.